Garrison, ND

8:13 AM CST on February 25, 2017 (GMT -0600)
Garrison

Weather History for KN60 - November, 2012

Change the Weather History Date:

Sunday, November 4, 2012

  Actual Average Record
Temperature  
Mean Temperature 31 °F -  
Max Temperature 34 °F - 70 °F (2016)
Min Temperature 28 °F - 16 °F (2003)
Degree Days  
Heating Degree Days 34    
Month to date heating degree days 141  
Cooling Degree Days 0    
Moisture  
Dew Point 29 °F    
Average Humidity 91    
Maximum Humidity 96    
Minimum Humidity 85    
Precipitation  
Precipitation 0.07 in - 0.07 in (2012)
Month to date precipitation 0.30  
Year to date precipitation 15.71  
Sea Level Pressure  
Sea Level Pressure 30.20 in    
Wind  
Wind Speed 8 mph (SSE)    
Max Wind Speed 12 mph    
Max Gust Speed -    
T = Trace of Precipitation, MM = Missing Value Source: NWS Daily Summary

Daily Weather History Graph

Daily Weather History Graph

Search for Another Location

Airport or City:

Trip Planner

Search our weather history database for the weather conditions in past years. The results will help you decide how hot, cold, wet, or windy it might be!

Date:

Astronomy

Nov. 04, 2012 Rise Set
Actual Time 7:35 AM CST 5:22 PM CST
Civil Twilight 7:02 AM CST 5:55 PM CST
Nautical Twilight 6:25 AM CST 6:31 PM CST
Astronomical Twilight 5:50 AM CST 7:07 PM CST
Moon 9:59 PM CST (11/4) 12:24 PM CST (11/4)
Length of Visible Light 10h 52m
Length of Day
9h 47m
Waning Gibbous, 72% of the Moon is Illuminated
Nov 4
Waning Gibbous
Nov 6
Last Quarter
Nov 13
New
Nov 20
First Quarter
Nov 28
Full

Hourly Weather History & Observations

Time (CST) Temp. Windchill Dew Point Humidity Pressure Visibility Wind Dir Wind Speed Gust Speed Precip Events Conditions
12:52 AM 28.0 °F 21.7 °F 25.0 °F 88% 30.25 in - SE 5.8 mph - N/A   Unknown
1:52 AM 28.9 °F 20.4 °F 25.0 °F 85% 30.25 in - SE 9.2 mph - N/A   Unknown
1:52 AM 28.9 °F 21.1 °F 26.1 °F 89% 30.24 in - SSE 8.1 mph - N/A   Unknown
2:52 AM 28.9 °F 19.8 °F 26.1 °F 89% 30.22 in - SSE 10.4 mph - N/A   Unknown
3:52 AM 28.9 °F 20.4 °F 26.1 °F 89% 30.20 in - SSE 9.2 mph - N/A   Unknown
4:52 AM 28.9 °F 20.4 °F 26.1 °F 89% 30.19 in - SSE 9.2 mph - N/A   Unknown
5:52 AM 28.9 °F 19.2 °F 26.1 °F 89% 30.18 in - SSE 11.5 mph - N/A   Unknown
6:52 AM 30.0 °F 21.7 °F 27.0 °F 88% 30.17 in - South 9.2 mph - N/A   Unknown
7:52 AM 30.0 °F 21.1 °F 27.0 °F 88% 30.16 in - SSE 10.4 mph - N/A   Unknown
8:52 AM 30.0 °F 20.5 °F 27.0 °F 88% 30.15 in - SSE 11.5 mph - N/A   Unknown
9:52 AM 30.9 °F 22.2 °F 28.9 °F 92% 30.14 in - SSE 10.4 mph - 0.02 in   Unknown
10:52 AM 32.0 °F 23.6 °F 30.0 °F 92% 30.15 in - South 10.4 mph - 0.01 in   Unknown
11:52 AM 32.0 °F 24.2 °F 30.9 °F 96% 30.15 in - South 9.2 mph - 0.03 in   Unknown
12:52 PM 33.1 °F 25.5 °F 30.9 °F 92% 30.14 in - South 9.2 mph - N/A   Unknown
1:52 PM 33.1 °F 27.7 °F 30.9 °F 92% 30.14 in - SE 5.8 mph - 0.01 in   Unknown
2:52 PM 33.1 °F 26.1 °F 32.0 °F 96% 30.14 in - SE 8.1 mph - N/A   Unknown
3:52 PM 33.1 °F - 32.0 °F 96% 30.18 in - Calm Calm - N/A   Unknown
4:52 PM 33.1 °F - 32.0 °F 96% 30.19 in - Calm Calm - N/A   Unknown
5:52 PM 33.1 °F - 32.0 °F 96% 30.22 in - Calm Calm - N/A   Unknown
6:52 PM 33.1 °F - 32.0 °F 96% 30.24 in - Calm Calm - N/A   Unknown
7:52 PM 33.1 °F - 32.0 °F 96% 30.25 in - Calm Calm - N/A   Unknown
8:52 PM 33.1 °F - 33.1 °F 100% 30.25 in - Calm Calm - N/A   Unknown
9:52 PM 33.1 °F 27.7 °F 33.1 °F 100% 30.27 in - WNW 5.8 mph - N/A   Unknown
10:52 PM 34.0 °F 29.8 °F 33.1 °F 96% 30.26 in - NW 4.6 mph - N/A   Unknown